This is the latest recevied weather packets stored in our database for station/object W8RD. If no packets are shown the sender has not sent any weather packets the latest 10 day(s).
| Time | Temp. | Humidity | Pressure | Rain* | Wind** | Luminosity | Snow |
|---|---|---|---|---|---|---|---|
| 1777639238 | 25.56° C | 83% | 1013.8 hPa | 0 mm | - | 26 W/m² | - |
| 1777638636 | 25° C | 85% | 1013.9 hPa | 0 mm | - | 32 W/m² | - |
| 1777638034 | 25° C | 86% | 1013.8 hPa | 0 mm | - | 26 W/m² | - |
| 1777635627 | 24.44° C | 88% | 1013.7 hPa | 0 mm | - | 22 W/m² | - |
| 1777635027 | 23.89° C | 89% | 1013.8 hPa | 0 mm | - | 16 W/m² | - |
| 1777634426 | 23.89° C | 89% | 1013.7 hPa | 0 mm | - | 13 W/m² | - |
| 1777633825 | 23.89° C | 89% | 1013.2 hPa | 0 mm | - | 5 W/m² | - |
| 1777633221 | 23.89° C | 89% | 1013.3 hPa | 0 mm | - | 2 W/m² | - |
| 1777632619 | 23.89° C | 89% | 1013 hPa | 0 mm | - | 1 W/m² | - |
| 1777632019 | 23.89° C | 89% | 1013 hPa | 0 mm | - | 0 W/m² | - |
| 1777631414 | 23.89° C | 89% | 1012.9 hPa | 0 mm | - | 0 W/m² | - |
| 1777630814 | 23.89° C | 89% | 1012.7 hPa | 0 mm | - | 0 W/m² | - |
| 1777630212 | 23.89° C | 89% | 1012.9 hPa | 0 mm | - | 0 W/m² | - |
| 1777629608 | 23.89° C | 89% | 1012.6 hPa | 0 mm | - | 0 W/m² | - |
| 1777629005 | 23.89° C | 89% | 1012.7 hPa | 0 mm | - | 0 W/m² | - |
| 1777628404 | 23.89° C | 89% | 1012.5 hPa | 0 mm | - | 0 W/m² | - |
| 1777627802 | 23.89° C | 89% | 1012.6 hPa | 0 mm | - | 0 W/m² | - |
| 1777627202 | 23.89° C | 88% | 1012.8 hPa | 0 mm | - | 0 W/m² | - |
| 1777626602 | 24.44° C | 88% | 1012.8 hPa | 0 mm | - | 0 W/m² | - |
| 1777626001 | 24.44° C | 88% | 1012.9 hPa | 0 mm | - | 0 W/m² | - |
| 1777625398 | 24.44° C | 88% | 1012.5 hPa | 0 mm | - | 0 W/m² | - |
| 1777624796 | 24.44° C | 87% | 1012.7 hPa | 0 mm | - | 0 W/m² | - |
| 1777624195 | 24.44° C | 87% | 1012.6 hPa | 0 mm | - | 0 W/m² | - |
| 1777623593 | 24.44° C | 87% | 1012.3 hPa | 0 mm | - | 0 W/m² | - |
| 1777622994 | 24.44° C | 87% | 1012.3 hPa | 0 mm | - | 0 W/m² | - |
* Rain latest hour (hover to see other rain measurements)
** Current wind speed in m/s (hover to see current wind gust speed)